Regional Weather Roundup
Issued by NWS

Home | Current Version | Previous Version | Text Only | Print | Product List | Glossary Off
Versions: 1 2 3 4 5 6 7 8 9 10 11 12 13 14 15 16 17 18 19 20 21 22 23 24 25 26 27 28 29 30 31 32 33 34 35 36 37 38 39 40 41 42 43 44 45 46 47 48 49 50

000
ASUS45 KBOU 301607
RWRCO

WEATHER ROUNDUP FOR COLORADO
NATIONAL WEATHER SERVICE DENVER/BOULDER CO
1000 AM MDT TUE SEP 30 2014

NOTE: "FAIR" INDICATES FEW OR NO CLOUDS BELOW 12000 FEET WITH NO
SIGNIFICANT WEATHER AND/OR OBSTRUCTIONS TO VISIBILITY.

COZ001>005-013-030-031-301700-
...NORTHWEST COLORADO...

CITY           SKY/WX    TMP DP  RH WIND       PRES   REMARKS
CRAIG          PTSUNNY   55  39  54 SW13      29.99F
HAYDEN         CLOUDY    50  36  57 W13G18    30.00S
MEEKER         CLOUDY    48  42  80 E3        30.01F
MOUNT WERNER   NOT AVBL
STEAMBOAT SPGS CLOUDY    45  38  78 CALM      30.01F
WALDEN         CLOUDY    37  32  81 SW15G23   30.01R
$$

COZ006>008-011-301700-
...WEST CENTRAL VALLEYS...

CITY           SKY/WX    TMP DP  RH WIND       PRES   REMARKS
GRAND JUNCTION PTSUNNY   53  43  68 SE10      30.01S
MONTROSE       MOSUNNY   50  43  77 CALM      30.05F
EAGLE          CLOUDY    45  43  93 CALM      30.06F
RIFLE          CLOUDY    45  42  89 NE3       30.03S
DELTA          CLOUDY    50  45  81 SE5       30.04S
NUCLA          MOSUNNY   52  41  66 CALM      30.09S
$$

COZ017>023-064>068-301700-
...SOUTHWEST COLORADO...

CITY           SKY/WX    TMP DP  RH WIND       PRES   REMARKS
DURANGO        SUNNY     46  38  73 E5        30.10S
CORTEZ         SUNNY     53  38  56 CALM      30.07S
PAGOSA SPRINGS SUNNY     45  35  67 CALM      30.13S
TELLURIDE      SUNNY    N/A N/A N/A CALM      30.14S
WOLF CREEK PAS CLOUDY    28  28 100 SW8G18    30.23R FOG     WCI  20
$$

COZ009-010-012-014-032>034-037-058>063-301700-
...CENTRAL COLORADO...

CITY           SKY/WX    TMP DP  RH WIND       PRES   REMARKS
ASPEN          CLOUDY    41  36  82 CALM      30.07S
BUENA VISTA    MOSUNNY   52  24  33 W18       30.03R
COPPER MTN     CLOUDY    32  27  80 W16G30    30.16S WCI  21
BERTHOUD PASS  CLOUDY    23  21  93 NW40G51   30.10F WCI   3
COTTONWOOD PAS CLOUDY    43  23  45 NW10G23   30.09R
GUNNISON       CLOUDY    39  34  81 CALM      30.12S
KREMMLING      CLOUDY    45  34  65 W9        30.05S
LEADVILLE      CLOUDY    36  25  64 N13G18    30.10S
MONARCH PASS   CLOUDY    28  27  93 MISG      30.23R FOG
SALIDA         PTSUNNY   56  29  35 SW18G25   30.10R
SUNLIGHT       LGT SNOW  34  34 100 CALM      30.15F VSB 1
WILKERSON PASS NOT AVBL
$$

COZ069>075-301700-
...SAN LUIS VALLEY/SANGRE DE CRISTO MOUNTAINS...

CITY           SKY/WX    TMP DP  RH WIND       PRES   REMARKS
ALAMOSA        SUNNY     46  31  55 E3        30.08S
LA VETA PASS   SUNNY     39  28  65 S13G24    30.10R
SAGUACHE       CLOUDY    43  32  65 CALM      30.10R
$$

COZ035-036-038>040-301700-
...NORTHERN COLORADO FRONT RANGE...

CITY           SKY/WX    TMP DP  RH WIND       PRES   REMARKS
DENVER INTL AP MOSUNNY   62  33  33 SW14      29.86R
DMNS CITY PARK   N/A     62  39  42 S6        29.87R
AURORA         MOSUNNY   59  34  38 SW8       29.89R
FRONT RANGE AP NOT AVBL
ERIE MUNI ARPT SUNNY     63  34  33 E5        29.85R
BOULDER MUN AP SUNNY     61  34  36 CALM      29.85R
CENTENNIAL     MOSUNNY   59  33  37 SW7       29.90R
BROOMFIELD     MOSUNNY   63  32  31 W14G20    29.88R
FORT COLLINS   SUNNY     55  48  76 NE9       29.86R
LONGMONT       SUNNY     62  42  47 CALM      29.86R
$$

COZ041-046-047-076>085-087-088-301700-
...PIKES PEAK/PALMER DIVIDE AND SOUTHERN FOOTHILLS...

CITY           SKY/WX    TMP DP  RH WIND       PRES   REMARKS
COLO. SPRINGS  MOSUNNY   56  33  42 CALM      29.93R
A. F. ACADEMY  SUNNY     60  25  25 W9        29.93R
ELLICOTT       NOT AVBL
FALCON         SUNNY     58  26  29 NW13G21   29.94S
FORT CARSON    NOT AVBL
LIMON          SUNNY     56  43  61 E3        29.89S
MONUMENT HILL  SUNNY     55  28  35 W14       29.94R
TRINIDAD       SUNNY     59  34  39 W6        29.93F
$$

COZ042>045-048>051-090-091-301700-
...NORTHEAST COLORADO...

CITY           SKY/WX    TMP DP  RH WIND       PRES   REMARKS
GREELEY ARPT   SUNNY     55  43  62 NE6       29.86S
AKRON          SUNNY     62  42  47 SW13      29.84S
BURLINGTON     SUNNY     63  44  50 S12       29.86S
WRAY           SUNNY     66  44  44 S14G21    29.83S
STERLING       SUNNY     63  50  63 W9        29.82S
HOLYOKE        SUNNY     64  46  52 SW10G17   29.82S
FORT MORGAN    SUNNY     58  44  59 W3        29.85S
$$

COZ086-089-092>099-301700-
...SOUTHEAST COLORADO...

CITY           SKY/WX    TMP DP  RH WIND       PRES   REMARKS
PUEBLO         SUNNY     62  39  42 SW9       29.89F
LA JUNTA       SUNNY     60  44  55 CALM      29.87F
LAMAR          SUNNY     62  46  55 S5        29.85F
SPRINGFIELD      N/A     65  42  43 NW8       29.88S
$$



USA.gov is the U.S. government's official web portal to all federal, state and local government web resources and services.